Location: Saint-Palais-sur-Mer
(45.6429°N, 1.0859°W)
Time: 03:59:49
(UTC+01:00)

Courier 1B Rocket - Pass Details

Date: 17 February 2026
Orbit: 920 x 1201 km, 28.2° (Epoch: 16 March)

Event Time Altitude Azimuth Distance (km) Brightness Sun altitude
Rises 21:42:05 0° 231° (SW) 3,569 8.3 -33.2°
Reaches altitude 10° 21:45:43 10° 211° (SSW) 2,657 7.4 -33.8°
Enters shadow 21:46:16 11° 206° (SSW) 2,555 7.2 -33.9°
